Find Starlink 11166

NORAD ID: 60062 Int'l Des: 2024-113 Owner: SPXS Country: US Constellation: starlink operational
LEOCIRCULAR

实时位置

正在加载3D地球...

关于 Starlink 11166

正在加载描述...

即将过境

Passes for default location (London). Set your location on the main map for personalized predictions.

高度历史

Loading altitude history...

两行轨道根数

1 60062U 24113D 26123.71217164 .00000932 00000-0 12554-4 0 9993
2 60062 53.1595 279.9302 0000845 93.5423 266.5691 15.69698461108200
Epoch: May 3, 2026 • Age: 8 hours

当前状态

高度 360.2 km
速度 7.70 km/s
星下点 21.89°N, 61.08°E
发射日期 Jun 19, 2024
运行时间 1.8 years
类型 internet

技术详情

分类 Payload
质量 960.00 kg
干质量 910.00 kg
总质量 960.00 kg
长度 0.30 m
直径 4.10 m
跨度 29.00 m
形状 Box + pan
制造商 SPXS
平台类型 Starlink V2MD
阶段状态 In Orbit
所有者/国家 SPXS/US

Most Searched